Location: ????? ????
(37.9717°N, 23.4051°E)
Time: 06:35:49
(UTC+00:00)

Cosmos 1825 - Visible Passes

Search period start: 16 July 2024 00:00
Search period end: 26 July 2024 00:00
Orbit: 434 x 441 km, 82.5° (Epoch: 15 July)

Date Brightness Start Highest point End Pass type
(mag) Time Alt. Az. Time Alt. Az. Time Alt. Az.
17 Jul 4.9 19:00:52 10° WSW 19:03:13 17° WNW 19:05:35 10° NNW visible
18 Jul 3.0 18:20:23 10° SSW 18:23:39 47° W 18:26:56 10° N visible
20 Jul 5.0 18:36:25 10° WSW 18:38:46 18° WNW 18:41:09 10° NNW visible
23 Jul 5.0 18:11:33 10° WSW 18:13:56 18° WNW 18:16:20 10° NNW visible
